[[{"header":{"parameterUnit":"m.s-1","parameterCategory":1,"la1":30.2991,"la2":30.254,"lo1":-89.0895,"lo2":-89.0444,"dy":0.0017,"dx":0.0017,"nx":28,"ny":28,"refTime":"2023-07-29T21:00:00:Z","depth":0,"parameterNumber":2,"parameterNumberName":"U-component_of_WINDS"},"data":[0,0,0,0,0,0,0,0,0,0,0,0,0,0,0,0,0,0,0,0,0,0,0,0,0,0,0,0,0,0,0,0,0,0,0,0,0,0,0,0,0,0,0,0,0,0,0,0,0,0,0,0,0,0,0,0,0,0,2.5379,2.538,0,2.5534,2.5536,2.5537,2.5575,2.5574,2.5573,2.5572,2.5727,2.5732,2.5737,0,0,0,0,0,0,0,0,0,0,0,0,0,2.511,2.5115,2.5378,2.538,2.5382,2.5534,2.5536,2.5538,2.5575,2.5574,2.5573,2.5572,2.5726,2.5732,2.5738,0,0,0,0,0,0,0,0,0,0,0,0,0,2.5242,2.5116,2.5378,2.5419,2.5425,2.5533,2.5536,2.5538,2.5576,2.5574,2.5573,2.5571,2.5724,2.5731,2.5739,2.5816,0,0,2.5762,2.5765,0,0,0,0,0,0,0,0,2.5234,2.5252,2.5411,2.5417,2.5423,2.5534,2.5498,2.5631,2.5576,2.5518,2.5572,2.557,2.5664,2.5676,2.5709,2.5823,2.583,2.5763,2.5767,2.577,2.5773,0,0,0,0,0,0,0,2.5225,2.5245,2.544,2.5414,2.5421,2.5429,2.5446,2.5523,2.5597,2.5523,2.5526,2.5544,2.5667,2.5701,2.5713,2.5832,2.5762,2.5769,2.5774,2.5777,2.6016,2.6017,0,0,0,0,0,0,2.521,2.5237,2.5435,2.5445,2.5323,2.5435,2.5454,2.55,2.5597,2.561,2.5545,2.5545,2.5689,2.5704,2.5718,2.5814,2.577,2.5777,2.5782,2.6014,2.6016,2.6018,0,0,0,0,0,0,2.5204,2.5227,2.5429,2.5342,2.5368,2.5441,2.5492,2.5503,2.5538,2.5614,2.5627,2.5567,2.5688,2.5707,2.5791,2.582,2.5781,2.5788,2.6012,2.6015,2.6017,2.6006,0,0,0,0,0,0,2.5196,2.5225,2.5256,2.5342,2.5373,2.55,2.5494,2.5508,2.5551,2.5553,2.5638,2.565,2.5689,2.578,2.5799,2.5829,2.5794,2.601,2.6013,2.6016,2.6004,2.6008,2.6011,0,0,0,0,0,2.5186,2.5246,2.5257,2.5281,2.5413,2.5502,2.5519,2.5563,2.5554,2.5585,2.5633,2.5648,2.5814,2.5788,2.581,2.5843,2.6008,2.6012,2.6016,2.6002,2.6007,2.6011,0,0,0,0,0,0,2.5159,2.5258,2.5272,2.5361,2.5423,2.5508,2.5549,2.5567,2.5632,2.563,2.5681,2.57,2.5779,2.582,2.5789,2.5922,2.591,2.5919,2.5893,2.5898,2.5901,2.5889,2.58,0,0,0,0,0,2.5164,2.5229,2.5311,2.5382,2.5413,2.5475,2.5516,2.5544,2.561,2.5635,2.569,2.5752,2.5818,2.586,2.5925,2.601,2.6028,2.6044,2.6047,2.605,2.6056,2.6103,2.611,2.6031,2.6031,2.6031,0,0,2.5174,2.5236,2.5274,2.5379,2.543,2.5494,2.5497,2.5565,2.5613,2.5646,2.5728,2.577,2.5842,2.5926,2.5966,2.5962,2.6082,2.6055,2.6057,2.6062,2.6107,2.6115,2.6121,2.6034,2.6033,2.6033,0,0,2.5225,2.5279,2.5344,2.5395,2.5473,2.5514,2.553,2.5612,2.5642,2.5725,2.575,2.5807,2.5921,2.5971,2.6011,2.608,2.6095,2.61,2.6118,2.6162,2.6168,2.6174,2.6197,2.6205,2.6106,2.6106,2.6106,0,2.5227,2.5327,2.5375,2.5442,2.5486,2.552,2.5584,2.5632,2.5726,2.5755,2.575,2.5892,2.5943,2.6038,2.6055,2.6087,2.6105,2.609,2.6164,2.617,2.6176,2.6198,2.6207,2.6106,2.6106,2.6106,2.6106,0,2.5325,2.5393,2.5436,2.5528,2.5577,2.5643,2.5698,2.5743,2.5767,2.5808,2.5891,2.5954,2.6032,2.6057,2.6081,2.6155,2.615,2.6154,2.6143,2.6183,2.6204,2.6214,2.6106,2.6106,2.6106,2.6106,0,0,2.5363,2.548,2.5494,2.5536,2.5624,2.5677,2.5743,2.582,2.5856,2.592,2.5976,2.607,2.6074,2.612,2.6149,2.6189,2.6237,2.6187,2.619,2.6193,2.6321,2.6317,2.6326,2.6248,2.625,2.6252,2.6315,0,2.5424,2.5545,2.5589,2.5688,2.5751,2.5783,2.584,2.59,2.594,2.5998,2.6041,2.6107,2.6108,2.6135,2.6176,2.6223,2.6263,2.6219,2.6299,2.6301,2.6278,2.6338,2.6334,2.6391,2.6324,2.6325,2.6327,0,2.5511,2.5576,2.5681,2.5761,2.5789,2.584,2.5913,2.5969,2.6036,2.6062,2.6113,2.614,2.6209,2.6195,2.6289,2.6258,2.6293,2.6321,2.6325,2.6333,2.6315,2.6346,2.641,2.6418,2.6341,2.634,2.6339,0,2.5526,2.564,2.5718,2.5752,2.5847,2.5882,2.5923,2.5989,2.6032,2.6096,2.6124,2.6194,2.6233,2.6286,2.6331,2.6317,2.6421,2.6411,2.6443,2.6441,2.6462,2.646,2.6531,2.6487,2.6487,2.6487,2.6487,0,2.5588,2.565,2.5726,2.5773,2.5844,2.5894,2.5961,2.6004,2.6062,2.6117,2.615,2.62,2.6257,2.6315,2.635,2.6422,2.6439,2.6461,2.647,2.6458,2.6455,2.648,2.6477,2.6489,2.6489,2.6488,2.6488,0,2.5616,2.567,2.5756,2.5839,2.5861,2.5909,2.5979,2.6025,2.6067,2.6136,2.6155,2.622,2.6289,2.6339,2.6429,2.6452,2.6529,2.6538,2.6506,2.651,2.6539,2.6535,2.6628,2.6642,2.659,2.659,2.6591,0,2.5652,2.5701,2.5789,2.5829,2.587,2.5934,2.5978,2.6028,2.6073,2.6152,2.6189,2.626,2.632,2.6429,2.6483,2.6551,2.6561,2.6589,2.6572,2.6558,2.656,2.6556,2.656,2.6591,2.6592,2.6592,2.6592,0,2.5709,2.5732,2.5796,2.5868,2.592,2.5979,2.6039,2.6069,2.6129,2.6177,2.6249,2.6296,2.6387,2.6457,2.6531,2.6571,2.6591,2.6597,2.6608,2.6596,2.6574,2.6585,2.6512,2.6595,2.6594,2.6594,2.6594,2.6594,2.5741,2.5785,2.5854,2.5923,2.5973,2.6028,2.6075,2.6123,2.6184,2.6263,2.6289,2.6362,2.6427,2.6528,2.6569,2.6627,2.6626,2.6642,2.6645,2.6648,2.6647,2.6567,2.664,2.664,2.664,2.664,2.664,0,2.5798,2.5844,2.5907,2.5989,2.6043,2.6059,2.6125,2.6168,2.6233,2.6293,2.6351,2.6433,2.6501,2.656,2.663,2.6665,2.6675,2.6681,2.6678,2.6687,2.6644,2.6627,2.6671,2.6671,2.6671,2.6671,2.6671,2.6671,2.5834,2.591,2.5941,2.6042,2.6087,2.616,2.6197,2.6246,2.6294,2.6384,2.6441,2.648,2.6539,2.6613,2.6676,2.6691,2.6715,2.6718,2.6736,2.6694,2.669,2.6687,2.6671,2.6723,2.6723,2.6774,2.6774,2.6774]},{"header":{"parameterUnit":"m.s-1","parameterCategory":1,"la1":30.2991,"la2":30.254,"lo1":-89.0895,"lo2":-89.0444,"dy":0.0017,"dx":0.0017,"nx":28,"ny":28,"refTime":"2023-07-29T21:00:00:Z","depth":0,"parameterNumber":3,"parameterNumberName":"V-component_of_WINDS"},"data":[0,0,0,0,0,0,0,0,0,0,0,0,0,0,0,0,0,0,0,0,0,0,0,0,0,0,0,0,0,0,0,0,0,0,0,0,0,0,0,0,0,0,0,0,0,0,0,0,0,0,0,0,0,0,0,0,0,0,4.0795,4.0795,0,4.0798,4.0798,4.0798,4.0716,4.0714,4.0712,4.071,4.0712,4.0714,4.0716,0,0,0,0,0,0,0,0,0,0,0,0,0,4.0718,4.072,4.0795,4.0795,4.0795,4.0798,4.0798,4.0798,4.0716,4.0714,4.0711,4.0709,4.0711,4.0714,4.0716,0,0,0,0,0,0,0,0,0,0,0,0,0,4.074,4.0721,4.0795,4.0755,4.0752,4.0798,4.0798,4.0798,4.0717,4.0714,4.071,4.0707,4.071,4.0713,4.0716,4.0801,0,0,4.0726,4.0727,0,0,0,0,0,0,0,0,4.0738,4.0742,4.0761,4.0758,4.0754,4.0753,4.0771,4.0799,4.0718,4.073,4.071,4.0706,4.0728,4.073,4.0737,4.0801,4.0801,4.0726,4.0728,4.073,4.073,0,0,0,0,0,0,0,4.0737,4.0742,4.0796,4.0761,4.0757,4.0736,4.0736,4.0776,4.0747,4.0729,4.0723,4.0724,4.0726,4.0734,4.0737,4.0801,4.0726,4.0729,4.0731,4.0732,4.0933,4.0937,0,0,0,0,0,0,4.0741,4.0741,4.0796,4.0796,4.0738,4.074,4.074,4.0757,4.0747,4.0742,4.0727,4.072,4.0731,4.0733,4.0737,4.0834,4.073,4.0732,4.0734,4.093,4.0934,4.0938,0,0,0,0,0,0,4.074,4.0747,4.0796,4.0767,4.0772,4.0745,4.0765,4.0759,4.0767,4.0745,4.074,4.0741,4.0728,4.0732,4.0785,4.0833,4.0734,4.0737,4.0926,4.0931,4.0936,4.103,0,0,0,0,0,0,4.0738,4.0747,4.078,4.0769,4.0774,4.0846,4.0768,4.0761,4.0773,4.0764,4.0758,4.0753,4.0726,4.0781,4.0789,4.0835,4.0739,4.0921,4.0928,4.0934,4.1023,4.1038,4.1051,0,0,0,0,0,4.0736,4.0806,4.0782,4.0789,4.0814,4.0849,4.0852,4.0819,4.0777,4.0809,4.0795,4.0753,4.0827,4.0787,4.0795,4.0843,4.0918,4.0926,4.0934,4.1017,4.1035,4.1051,0,0,0,0,0,0,4.0824,4.0804,4.0777,4.0846,4.085,4.0835,4.0874,4.084,4.0855,4.0847,4.0805,4.0804,4.0864,4.0859,4.0816,4.0924,4.0865,4.0875,4.0925,4.0943,4.0957,4.0956,4.0742,0,0,0,0,0,4.0852,4.0882,4.0863,4.0926,4.0929,4.0902,4.0916,4.089,4.0892,4.0893,4.0883,4.0886,4.0909,4.0926,4.0946,4.1022,4.1018,4.1059,4.1073,4.1085,4.1093,4.1131,4.1149,4.0963,4.0963,4.0963,0,0,4.0909,4.0902,4.0924,4.0943,4.0943,4.0975,4.0903,4.094,4.0963,4.0898,4.0948,4.094,4.0941,4.1006,4.1033,4.1003,4.1144,4.1095,4.1104,4.1106,4.1141,4.1159,4.1174,4.0969,4.0968,4.0967,0,0,4.1029,4.1028,4.1079,4.108,4.108,4.1061,4.1074,4.1064,4.1056,4.1105,4.1057,4.1083,4.1125,4.1127,4.1133,4.1253,4.1215,4.1261,4.1335,4.1372,4.1387,4.14,4.1441,4.1457,4.127,4.127,4.127,0,4.1101,4.1147,4.111,4.115,4.1159,4.1102,4.1153,4.1155,4.1163,4.117,4.1136,4.1186,4.1183,4.1246,4.1275,4.1283,4.1295,4.1261,4.1388,4.14,4.1411,4.1451,4.1467,4.1275,4.1275,4.1274,4.1274,0,4.1233,4.1266,4.1307,4.1315,4.1329,4.1375,4.1344,4.1363,4.1335,4.132,4.1369,4.1363,4.1381,4.1394,4.1368,4.1453,4.1434,4.1395,4.1335,4.1435,4.1471,4.1486,4.1283,4.1281,4.128,4.1278,0,0,4.1411,4.1396,4.1412,4.1414,4.1409,4.1433,4.1475,4.1492,4.1508,4.1515,4.1549,4.1585,4.1547,4.1555,4.1529,4.1562,4.1655,4.1518,4.1517,4.1543,4.1748,4.1777,4.1795,4.163,4.1633,4.1635,4.1747,0,4.1527,4.1598,4.1565,4.1639,4.1668,4.1613,4.1649,4.165,4.1636,4.1658,4.1643,4.1669,4.1618,4.1622,4.1653,4.1638,4.1696,4.1629,4.166,4.1662,4.1661,4.1814,4.1845,4.1952,4.1761,4.1764,4.1765,0,4.1672,4.1683,4.1761,4.1749,4.176,4.1793,4.1805,4.1827,4.1826,4.1813,4.1821,4.1787,4.1826,4.1767,4.182,4.1776,4.1786,4.1781,4.1784,4.1786,4.172,4.1819,4.1985,4.2001,4.1787,4.1786,4.1784,0,4.1792,4.1827,4.1877,4.1881,4.1869,4.1893,4.1889,4.1885,4.1897,4.1907,4.1914,4.1929,4.1938,4.195,4.192,4.188,4.1977,4.1916,4.1968,4.1969,4.1991,4.1989,4.216,4.1999,4.1999,4.1998,4.1998,0,4.1925,4.1974,4.1931,4.1962,4.2014,4.1976,4.2029,4.2019,4.2016,4.2043,4.1997,4.2024,4.1983,4.2006,4.1983,4.203,4.2034,4.2025,4.2018,4.2029,4.203,4.2035,4.2027,4.2003,4.2002,4.2001,4.2,0,4.2068,4.2041,4.2092,4.2076,4.2073,4.2112,4.2098,4.2126,4.2108,4.2144,4.215,4.2122,4.2146,4.2118,4.214,4.2124,4.2188,4.2171,4.2189,4.2183,4.2237,4.2232,4.2416,4.2438,4.2264,4.2265,4.2267,0,4.2154,4.219,4.2178,4.2192,4.2191,4.2216,4.2227,4.219,4.2204,4.2205,4.2232,4.2252,4.2266,4.2307,4.2289,4.2305,4.2287,4.2351,4.2289,4.2299,4.2287,4.2285,4.2288,4.2363,4.2365,4.2367,4.2368,0,4.2309,4.2294,4.2312,4.2325,4.2339,4.2348,4.2353,4.2368,4.2329,4.2347,4.237,4.2381,4.2403,4.2423,4.2434,4.2429,4.2393,4.2388,4.24,4.2411,4.242,4.2415,4.2222,4.2384,4.2382,4.2381,4.238,4.238,4.2426,4.2455,4.245,4.2471,4.2471,4.2476,4.2501,4.2486,4.2505,4.2519,4.2496,4.2526,4.2522,4.2533,4.2533,4.2555,4.2528,4.2547,4.2551,4.2556,4.2564,4.2417,4.2557,4.2557,4.2556,4.2556,4.2555,0,4.2578,4.2572,4.2591,4.2599,4.2616,4.2579,4.2582,4.2598,4.2624,4.2624,4.2639,4.2665,4.2684,4.2667,4.2683,4.2704,4.2687,4.2709,4.2707,4.2706,4.2588,4.2575,4.2722,4.2722,4.2722,4.2722,4.2722,4.2722,4.2659,4.2706,4.2689,4.2735,4.2728,4.2756,4.2761,4.2765,4.2765,4.2796,4.2812,4.28,4.2793,4.2808,4.2823,4.2818,4.2825,4.2853,4.2842,4.2731,4.2715,4.2699,4.2687,4.2855,4.2855,4.2958,4.2959,4.296]}]]